Home > Weather > Owensboro > Past weeks

Flag for USA Weather for the Past 2 Weeks in Owensboro, Kentucky, USA

Now
79 °F

Partly sunny.


Feels Like: 81 °F
Forecast: 64 / 77 °F
Wind: 9 mph from Southwest

Location: Owensboro / Daviess

Current Time: May 1, 2016 at 1:29:00 PM

Latest Report: May 1, 2016 at 12:56 PM


Visibility: 10 mi

Pressure: 29.91 "Hg

Humidity: 64%

Dew Point: 66 °F

Location of OwensboroLocation

Historic Weather in Owensboro — Graph

°F

Owensboro Temperature Yesterday

Maximum temperature yesterday: 70 °F (at 3:56 PM)
Minimum temperature yesterday: 59 °F (at 7:56 AM)
Average temperature yesterday: 64 °F

High & Low Weather Summary for the Past Weeks

 TemperatureHumidityPressure
High86 °F (Apr 26, 1:56 PM)100% (Apr 21, 12:56 AM)30.37 "Hg (Apr 21, 12:56 AM)
Low46 °F (Apr 24, 5:56 AM)23% (Apr 19, 1:56 PM)29.68 "Hg (Apr 27, 4:56 PM)
Average67 °F72%29.99 "Hg
* Reported Apr 16 11:56 AM — May 1 11:56 AM, Owensboro, Weather by CustomWeather, © 2016

Note: Actual official high and low records may vary slightly from our data, if they occured in-between our weather recording intervals... More about our weather records

Advertising

Owensboro Weather History for the Previous 24 Hours

Scroll right to see more
 ConditionsComfort  
Time TempWeatherWind HumidityBarometerVisibility
11:56 AM
Sun, May 1
78 °FPartly sunny.8 mph66%29.92 "Hg10 mi
10:56 AM76 °FPassing clouds.9 mph69%29.92 "Hg10 mi
9:56 AM73 °FSunny.9 mph76%29.91 "Hg10 mi
8:56 AM68 °FSunny.9 mph81%29.91 "Hg10 mi
7:56 AM65 °FSunny.7 mph84%29.90 "Hg10 mi
6:56 AM60 °FSunny.No wind97%29.91 "Hg10 mi
5:56 AM60 °FSunny.No wind97%29.90 "Hg10 mi
4:56 AM62 °FClear.No wind93%29.88 "Hg10 mi
3:56 AM63 °FPassing clouds.6 mph100%29.89 "Hg10 mi
2:56 AM63 °FFog.No wind100%29.88 "Hg5 mi
1:56 AM64 °FFog.No wind100%29.87 "Hg6 mi
12:56 AM65 °FPassing clouds.No wind100%29.88 "Hg9 mi
11:56 PM
Sat, Apr 30
64 °FPartly cloudy.No wind100%29.88 "Hg10 mi
10:56 PM65 °FClear.5 mph100%29.86 "Hg10 mi
9:56 PM67 °FPassing clouds.5 mph96%29.86 "Hg10 mi
8:56 PM68 °FPassing clouds.9 mph93%29.86 "Hg10 mi
7:56 PM68 °FPassing clouds.9 mph96%29.85 "Hg10 mi
6:56 PM69 °FBroken clouds.7 mph93%29.85 "Hg10 mi
5:56 PM69 °FScattered clouds.8 mph90%29.85 "Hg10 mi
4:56 PM70 °FPassing clouds.10 mph84%29.84 "Hg10 mi
3:56 PM70 °FBroken clouds.13 mph87%29.85 "Hg10 mi
2:56 PM68 °FBroken clouds.9 mph90%29.85 "Hg10 mi
1:56 PM67 °FLight rain. Overcast.7 mph90%29.87 "Hg10 mi
Weather by CustomWeather, © 2016

See weather overviewHow to use our weather pages